Showing default

KUIPER-00438, 68940

Orbit data source: Space-Track

KUIPER-00438, 68940 is a payload satellite owned by Kuiper Systems (US) in LEO that was launched on Thu, 30 Apr 2026 UTC via an ARIANE 64 launch vehicle from the French Guiana (FRGUI). Payload-class satellites include a variety of spacecraft equipped with specific instruments for various scientific and technological missions. These include communications satellites like Starlink; space stations such as the ISS; scientific satellites like the Hubble; Earth observation satellites from companies like Planet Labs, Umbra, and HawkEye 360; GPS; miniature CubeSats for education and research; and military/defense satellites.

Loading next visibility...
Identifier
68940, 2026-098X
Orbit
LEO
Country
Flag of USUS
Related business
Manufacturer
Kuiper Systems
Mission
Operational spacecraft
Bus & Motor
KUIPER, Unknown motor
Mass
~490 kg wet, ~490 kg dry
Launch date (UTC)
2026-04-30 (2 months ago)
Launch vehicle
ARIANE 64
Launch site
French Guiana (FRGUI)
Object type
Payload
Rocket body
Debris
Shape & HBR
Unknown shape, 3.4 m
Radar Cross Section
Large (>1 m²)

Expand to show TLE details & history
Last TLE update: 14 hours ago

TLE from 14 hours ago
0 KUIPER-00438
1 68940U 26098X   26171.38118036 -.00014813  00000-0 -45584-3 0  9997
2 68940  51.8776  52.6457 0005677 170.7526 189.3564 15.32377139  7830
Epoch: 2026-06-20T09:08Z
TLE epoch observation values (Epoch: 2026-06-20T09:08:53.983Z)
Latitude
-0.00001°
Longitude
6.82414°
Altitude
473.319 km
Speed
7.628 km/s
True Right ascension
03h 30m 34s
True Declination
0° 00' 00"
Sunlit
Object was in daylight at epoch
Visualization orbit readout
Latitude
Unknown
Longitude
Unknown
Altitude
Unknown
Speed
Unknown
Apparent Right ascension
Unknown
Apparent Declination
Unknown
Sunlit
N/A
Visualization observer readout
Local Sidereal Time
10:18:32
Azimuth
Unknown
Elevation
Unknown
Doppler factor
Unknown
Orbital elements
Apogee altitude
473.075 km
Perigee altitude
465.3 km
Semi-major axis
6,847.324 km
Eccentricity
0.00057
Inclination
51.8776°
RAAN
52.6457°
Arg. of periapsis
170.7526°
True anomaly
189.34583°
Mean anomaly
189.3564°
Eccentric anomaly
189.35111°
Mean motion
3.83056 °/min
Orbital period
93.98 mins
BSTAR
-0.00045584
Loading maneuver chart data...
Computing Atmospheric mass density...
Loading historical data...
Loading historical data...
Loading historical data...
Loading historical data...
Loading historical data...
Loading historical data...
Loading historical data...

Documentation

Showing up to 5 results
|